Location: Monrovia
(34.7865°N, 86.7139°W)
Time: 00:08:10
(UTC+00:00)

ERS-1 Rocket - Pass Details

Date: 14 July 2020
Orbit: 752 x 758 km, 98.5° (Epoch: 12 August)

Event Time Altitude Azimuth Distance (km) Brightness Sun altitude
Exits shadow 03:16:29 53° 115° (ESE) 925 3.0 -22.5°
Maximum altitude 03:17:17 61° 74° (ENE) 859 3.0 -22.6°
Drops below altitude 10° 03:22:15 10° 355° (N) 2,291 6.2 -23.2°
Sets 03:24:35 0° 352° (N) 3,219 7.2 -23.5°
